Gwinn, MI

6:23 AM EDT on August 24, 2016 (GMT -0400)
Sawyer International

Weather History for KSAW - March, 2014

Change the Weather History Date:

Thursday, March 6, 2014

  Actual Average (KESC) Record (KESC)
Temperature  
Mean Temperature 8 °F -  
Max Temperature 25 °F 32 °F 48 °F (1988)
Min Temperature -7 °F 12 °F -25 °F (1972)
Degree Days  
Heating Degree Days 56    
Moisture  
Dew Point 2 °F    
Average Humidity 77    
Maximum Humidity 92    
Minimum Humidity 54    
Precipitation  
Precipitation 0.00 in - - ()
Sea Level Pressure  
Sea Level Pressure 30.21 in    
Wind  
Wind Speed 11 mph (SSW)    
Max Wind Speed 24 mph    
Max Gust Speed 31 mph    
Visibility 9 miles    
Events Snow    
Averages and records for this station are not official NWS values.
T = Trace of Precipitation, MM = Missing Value Source: NWS Daily Summary

Daily Weather History Graph

Daily Weather History Graph

Search for Another Location

Airport or City:

Trip Planner

Search our weather history database for the weather conditions in past years. The results will help you decide how hot, cold, wet, or windy it might be!

Date:

Astronomy

Mar. 06, 2014 Rise Set
Actual Time 7:19 AM EST 6:42 PM EST
Civil Twilight 6:49 AM EST 7:12 PM EST
Nautical Twilight 6:14 AM EST 7:47 PM EST
Astronomical Twilight 5:39 AM EST 8:22 PM EST
Moon 10:07 AM EST (3/6) 12:08 AM EST (3/6)
Length of Visible Light 12h 23m
Length of Day
11h 23m
Waxing Crescent, 32% of the Moon is Illuminated
Mar 6
Waxing Crescent
Mar 8
First Quarter
Mar 16
Full
Mar 23
Last Quarter
Mar 30
New

Hourly Weather History & Observations

Time (EST) Temp. Windchill Dew Point Humidity Pressure Visibility Wind Dir Wind Speed Gust Speed Precip Events Conditions
12:16 AM -4.9 °F - -9.2 °F 82% 30.41 in 10.0 mi Calm Calm - N/A   Clear
12:37 AM -7.6 °F -18.8 °F -12.1 °F 81% 30.40 in 10.0 mi SSW 4.6 mph - N/A   Clear
12:56 AM -4.5 °F -16.9 °F -8.9 °F 82% 30.40 in 10.0 mi SSW 5.8 mph - N/A   Clear
1:16 AM -6.7 °F -22.3 °F -10.8 °F 82% 30.40 in 10.0 mi SSW 8.1 mph - N/A   Clear
1:36 AM -1.3 °F -15.7 °F -6.2 °F 80% 30.40 in 10.0 mi SSW 8.1 mph - N/A   Clear
1:56 AM -2.4 °F -18.2 °F -6.9 °F 81% 30.40 in 10.0 mi SSW 9.2 mph - N/A   Clear
2:17 AM -2.2 °F -18.0 °F -6.5 °F 82% 30.40 in 10.0 mi SSW 9.2 mph - N/A   Clear
2:36 AM -2.2 °F -18.0 °F -6.2 °F 83% 30.39 in 10.0 mi SSW 9.2 mph - N/A   Clear
2:56 AM -0.0 °F -17.1 °F -3.5 °F 85% 30.39 in 10.0 mi South 11.5 mph - N/A   Clear
3:17 AM -1.7 °F -18.3 °F -4.9 °F 86% 30.38 in 10.0 mi SSW 10.4 mph - N/A   Clear
3:36 AM 0.5 °F -17.3 °F -2.7 °F 86% 30.36 in 10.0 mi South 12.7 mph - N/A   Clear
3:56 AM 0.5 °F -16.5 °F -2.9 °F 85% 30.36 in 7.0 mi SSW 11.5 mph - N/A   Clear
4:17 AM 1.0 °F -15.8 °F -2.2 °F 86% 30.36 in 10.0 mi SSW 11.5 mph - N/A   Clear
4:36 AM 1.2 °F -14.7 °F -2.4 °F 85% 30.36 in 10.0 mi SSW 10.4 mph - N/A   Clear
4:57 AM 0.7 °F -16.2 °F -2.9 °F 85% 30.36 in 7.0 mi SSW 11.5 mph - N/A   Clear
5:16 AM 1.4 °F -15.3 °F -2.2 °F 85% 30.36 in 5.0 mi SSW 11.5 mph - N/A   Clear
5:36 AM 2.1 °F -13.6 °F -1.7 °F 84% 30.35 in 10.0 mi SSW 10.4 mph - N/A   Clear
5:57 AM 1.8 °F -13.1 °F -1.8 °F 85% 30.35 in 10.0 mi SSW 9.2 mph - N/A   Clear
6:50 AM 1.4 °F -15.3 °F -2.2 °F 85% 30.33 in 10.0 mi SSW 11.5 mph - N/A   Clear
7:55 AM 3.2 °F -13.9 °F -0.4 °F 85% 30.31 in 7.0 mi SSW 12.7 mph - N/A   Clear
8:50 AM 6.8 °F -11.3 °F 3.2 °F 85% 30.31 in 1.2 mi SSW 16.1 mph - N/A Snow Blowing Snow
9:50 AM 10.4 °F -6.0 °F 8.6 °F 92% 30.29 in 7.0 mi SSW 15.0 mph 20.7 mph N/A   Mostly Cloudy
10:55 AM 14.0 °F -4.3 °F 8.6 °F 79% 30.25 in 10.0 mi SSW 21.9 mph 28.8 mph N/A   Scattered Clouds
11:50 AM 17.6 °F 0.5 °F 10.4 °F 73% 30.22 in 10.0 mi SSW 21.9 mph 27.6 mph N/A   Scattered Clouds
12:50 PM 19.4 °F 2.1 °F 10.4 °F 68% 30.18 in 10.0 mi South 24.2 mph 29.9 mph N/A   Clear
1:50 PM 23.0 °F 7.2 °F 12.2 °F 63% 30.13 in 10.0 mi SSW 23.0 mph 28.8 mph N/A   Clear
2:50 PM 24.8 °F 9.6 °F 12.2 °F 59% 30.09 in 10.0 mi South 23.0 mph 28.8 mph N/A   Clear
3:50 PM 24.8 °F 10.7 °F 12.2 °F 59% 30.06 in 10.0 mi South 19.6 mph 31.1 mph N/A   Clear
4:50 PM 24.8 °F 11.9 °F 10.4 °F 54% 30.04 in 10.0 mi South 16.1 mph 26.5 mph N/A   Clear
5:45 PM 23.0 °F 7.6 °F 8.6 °F 54% 30.01 in 10.0 mi South 21.9 mph 26.5 mph N/A   Clear
6:45 PM 21.2 °F 6.0 °F 6.8 °F 54% 29.97 in 10.0 mi South 19.6 mph - N/A   Clear
7:45 PM 19.4 °F 4.5 °F 5.0 °F 54% 29.97 in 10.0 mi South 17.3 mph 24.2 mph N/A   Clear
8:45 PM 17.6 °F 2.2 °F 8.6 °F 68% 29.94 in 10.0 mi SSW 17.3 mph 24.2 mph N/A   Scattered Clouds
9:46 PM 17.6 °F 2.7 °F 10.4 °F 73% 29.93 in 10.0 mi SSW 16.1 mph - N/A   Clear
10:17 PM 17.6 °F 1.7 °F 10.4 °F 73% 29.93 in 10.0 mi SSW 18.4 mph - N/A   Clear
10:36 PM 17.4 °F 1.9 °F 10.9 °F 76% 29.92 in 10.0 mi SSW 17.3 mph - N/A   Clear
10:56 PM 17.2 °F 1.2 °F 11.1 °F 77% 29.91 in 10.0 mi SSW 18.4 mph - N/A   Scattered Clouds
11:17 PM 17.2 °F 0.8 °F 11.3 °F 78% 29.91 in 10.0 mi SSW 19.6 mph - N/A   Scattered Clouds
11:36 PM 17.1 °F 1.0 °F 11.5 °F 79% 29.90 in 10.0 mi SSW 18.4 mph 25.3 mph N/A   Scattered Clouds
11:56 PM 17.2 °F 1.7 °F 11.7 °F 79% 29.91 in 10.0 mi SSW 17.3 mph 23.0 mph N/A   Scattered Clouds